Location: Unspecified
(17.6330°N, 0.0000°E)
Time: 14:28:14
(UTC+00:00)

Tiangong 2 - Visible Passes

Search period start: 19 May 2019 00:00
Search period end: 29 May 2019 00:00
Orbit: 378 x 387 km, 42.8° (Epoch: 19 May)

Date Brightness Start Highest point End Pass type
(mag) Time Alt. Az. Time Alt. Az. Time Alt. Az.
19 May 2.1 03:52:15 34° N 03:53:07 45° NE 03:56:10 10° ESE visible
20 May 2.4 04:30:00 22° SW 04:30:00 22° SW 04:32:14 10° S visible
20 May 4.3 19:18:09 10° WNW 19:19:41 13° NW 19:21:13 10° N visible
